Location: Newark
(42.5441°N, 12.7211°E)
Time: 03:10:51
(UTC+00:00)

N. Korean satellite - Visible Passes

Search period start: 09 December 2019 00:00
Search period end: 19 December 2019 00:00
Orbit: 456 x 506 km, 97.2° (Epoch: 07 December)

Date Brightness Start Highest point End Pass type
(mag) Time Alt. Az. Time Alt. Az. Time Alt. Az.
09 Dec 10.0 03:56:55 10° ENE 03:58:02 11° E 03:59:08 10° ESE visible
09 Dec 6.8 05:28:18 10° N 05:31:41 42° WNW 05:34:59 10° SW visible
09 Dec 6.6 16:03:37 10° SSE 16:07:19 71° ENE 16:11:01 10° N visible
10 Dec 6.5 05:02:45 10° NNE 05:06:17 85° E 05:09:46 10° S visible
10 Dec 9.8 17:13:06 10° SW 17:15:27 16° W 17:17:49 10° NW visible
11 Dec 8.1 04:37:30 10° NNE 04:40:49 37° E 04:44:03 10° SSE visible
11 Dec 8.7 16:46:33 10° SSW 16:49:53 31° W 16:53:13 10° NNW visible
12 Dec 9.4 04:12:45 10° NE 04:15:14 18° E 04:17:40 10° SE visible
12 Dec 7.5 05:45:40 10° NNW 05:48:38 26° WNW 05:51:33 10° SW visible
12 Dec 7.1 16:20:43 10° S 16:24:23 68° W 16:28:04 10° NNW visible
13 Dec 6.5 05:19:52 10° N 05:23:19 55° WNW 05:26:42 10° SSW visible
14 Dec 6.9 04:54:24 10° NNE 04:57:54 65° E 05:01:19 10° S visible
14 Dec 9.6 17:04:17 10° SW 17:07:02 20° W 17:09:48 10° NW visible
15 Dec 8.6 04:29:18 10° NE 04:32:23 29° E 04:35:25 10° SSE visible
15 Dec 8.2 16:38:00 10° S 16:41:29 39° W 16:44:57 10° NNW visible
16 Dec 9.8 04:04:50 10° ENE 04:06:46 14° E 04:08:41 10° SE visible
16 Dec 7.2 05:37:08 10° N 05:40:17 32° WNW 05:43:23 10° SW visible
16 Dec 6.7 16:12:20 10° SSE 16:16:01 87° WSW 16:19:41 10° NNW visible
17 Dec 6.3 05:11:26 10° N 05:14:55 72° WNW 05:18:20 10° SSW visible
17 Dec 10.0 17:22:39 10° WSW 17:24:13 12° W 17:25:48 10° WNW visible
18 Dec 7.4 04:46:05 10° NNE 04:49:28 49° E 04:52:47 10° S visible
18 Dec 9.2 16:55:34 10° SSW 16:58:36 24° W 17:01:38 10° NW visible
